Voltar ao catálogo

ONEWEB-0519

AtivoComunicaçõesPO
NORAD 54137·PAYLOAD·🇬🇧 United Kingdom

Lançado Oct 22, 2022 de Satish Dhawan Space Centre

Loading…

Próximas Passagens (próximas 24 horas)

TLE

AtualizadoSource: CelesTrak SupGP

Época: Sep 14, 2026, 19:26 UTC

1 54137C 22138AA  26257.81022407 -.00000281  00000+0 -70276-3 0  2576
2 54137  87.9105 287.1152 0002103  97.8093  15.6312 13.19724042    12

Acompanhe ONEWEB-0519 em tempo real com AllMySat

Download on the App Store